This demonstration page uses our WeatherBlox Daily Observations layout. Learn more.

Left ArrowRight Arrow

Hourly Observations for May 8, 2019

Temp ( °F °C ) Dew Point ( °F °C ) Humidity (%) Winds ( mph kmh ) Pressure ( in mb ) Visibility ( mi km ) Precip ( " mm )
12:52 am 00:52 Clear 71 21.7 62 16.7 73 73 SSE 16 26 29.86 1011 10 16 0.00 0.00
1:52 am 01:52 Clear 70 21.1 61 16.1 73 73 SSE 14 22 29.84 1011 10 16 0.00 0.00
2:52 am 02:52 Clear 69 20.6 61 16.1 76 76 SSE 14 22 29.80 1009 10 16 0.00 0.00
3:52 am 03:52 Clear 68 20 61 16.1 78 78 SSE 16 26 29.78 1009 10 16 0.00 0.00
4:52 am 04:52 Mostly Cloudy 67 19.4 61 16.1 81 81 SSE 13 20 29.78 1009 10 16 0.00 0.00
5:52 am 05:52 Cloudy 68 20 61 16.1 78 78 SSE 14 22 29.75 1008 10 16 0.00 0.00
6:52 am 06:52 Cloudy 68 20 61 16.1 78 78 SSE 15 24 29.74 1007 10 16 0.00 0.00
7:27 am 07:27 Mostly Cloudy with Nearby Thunderstorms 68 20 61 16.1 78 78 SSE 16 26 29.72 1007 10 16 0.00 0.00
7:52 am 07:52 Cloudy with Thunderstorms 68 20 61 16.1 78 78 SSW 14 22 29.76 1008 10 16 0.00 0.03
8:06 am 08:06 Cloudy with Strong Thunderstorms 66 18.9 62 16.7 87 87 SW 10 17 29.76 1008 3 4 0.04 1.02
8:12 am 08:12 Cloudy with Strong Thunderstorms 65 18.3 63 17.2 93 93 WSW 12 19 29.77 1008 2 2 0.16 4.06
8:29 am 08:29 Cloudy with Nearby Thunderstorms 60 15.6 57 13.9 90 90 W 20 31 29.79 1009 2 2 0.32 8.13
8:35 am 08:35 Cloudy with Heavy Rain 60 15.6 57 13.9 90 90 W 17 28 29.80 1009 2 3 0.39 9.91
8:52 am 08:52 Cloudy with Heavy Rain 60 15.6 57 13.9 90 90 WSW 14 22 29.79 1009 3 5 0.49 12.45
9:52 am 09:52 Cloudy 62 16.7 58 14.4 86 86 S 6 9 29.77 1008 10 16 0.03 0.76
10:52 am 10:52 Cloudy with Light Rain 62 16.7 59 15 90 90 S 14 22 29.78 1008 10 16 0.00 0.03
11:52 am 11:52 Cloudy with Light Rain 64 17.8 59 15 84 84 S 15 24 29.76 1008 10 16 0.00 0.03
12:52 pm 12:52 Cloudy with Light Rain 64 17.8 59 15 84 84 SSE 16 26 29.72 1006 10 16 0.00 0.03
1:52 pm 13:52 Mostly Sunny 64 17.8 59 15 84 84 SE 10 17 29.71 1006 10 16 0.00 0.03
2:27 pm 14:27 Mostly Cloudy 65 18.3 59 15 81 81 S 12 19 29.71 1006 10 16 0.00 0.03
2:38 pm 14:38 Partly Cloudy 66 18.9 59 15 78 78 S 16 26 29.70 1006 10 16 0.00 0.03
2:52 pm 14:52 Mostly Sunny 65 18.3 59 15 81 81 SSE 25 41 29.66 1004 10 16 0.00 0.03
3:52 pm 15:52 Sunny 65 18.3 58 14.4 78 78 SSE 20 31 29.64 1004 10 16 0.00 0.00
4:52 pm 16:52 Sunny 64 17.8 58 14.4 81 81 SSE 22 35 29.64 1004 10 16 0.00 0.00
5:52 pm 17:52 Mostly Sunny 64 17.8 58 14.4 81 81 SW 7 11 29.68 1005 10 16 0.00 0.00
6:24 pm 18:24 Mostly Cloudy 64 17.8 58 14.4 81 81 VRB 3 6 29.68 1005 10 16 0.00 0.00
6:52 pm 18:52 Cloudy 64 17.8 58 14.4 81 81 SSW 7 11 29.69 1005 10 16 0.00 0.00
7:52 pm 19:52 Partly Cloudy 63 17.2 58 14.4 84 84 SSE 6 9 29.67 1005 10 16 0.00 0.00
8:52 pm 20:52 Clear 61 16.1 57 13.9 87 87 SSW 3 6 29.69 1005 10 16 0.00 0.00
9:52 pm 21:52 Clear 60 15.6 57 13.9 90 90 SE 9 15 29.71 1006 10 16 0.00 0.00
10:52 pm 22:52 Mostly Cloudy 61 16.1 58 14.4 90 90 S 8 13 29.72 1006 10 16 0.00 0.00
11:52 pm 23:52 Mostly Cloudy 60 15.6 57 13.9 90 90 S 7 11 29.73 1007 10 16 0.00 0.00

Powered by AerisWeather